{"data":{"norad_id":52372,"epoch":"2026-09-19T22:01:09.573024Z","epoch_age_seconds":109988,"freshness":"FRESH","line1":"1 52372U 22045AT  26262.91747191  .00000355  00000+0  21649-4 0  9997","line2":"2 52372  53.1610  22.5996 0001102  89.1039 271.0089 15.34385946245437","mean_motion":15.34385946,"eccentricity":0.0001102,"inclination_deg":53.161,"raan_deg":22.5996,"arg_perigee_deg":89.1039,"mean_anomaly_deg":271.0089,"bstar":2.1649e-5,"rev_number":24543,"period_min":93.848617667149,"perigee_km":461.99114677797,"apogee_km":463.4988771734,"semimajor_km":6840.8820119757,"source":"CELESTRAK","updated_at":"2026-09-20T09:00:40.029145Z"}}